STARLINK-38377, 100521

Orbit data source: Space-Track

STARLINK-38377, 100521 is a payload satellite owned by SpaceX/Seattle (US) in LEO that was launched on Wed, 26 Aug 2026 UTC launched from the Air Force Western Test Range (AFWTR). Payload-class satellites include a variety of spacecraft equipped with specific instruments for various scientific and technological missions. These include communications satellites like Starlink; space stations such as the ISS; scientific satellites like the Hubble; Earth observation satellites from companies like Planet Labs, Umbra, and HawkEye 360; GPS; miniature CubeSats for education and research; and military/defense satellites.

Loading next visibility...
Identifier
100521, 2026-197V
Orbit
LEO
Country
Flag of USUS
Related business
Manufacturer
SpaceX/Seattle
Mission
Operational spacecraft
Bus & Motor
STARLINK V2MO, Unknown motor
Mass
575 kg wet, ~530 kg dry
Launch date (UTC)
2026-08-26 (2 weeks ago)
Launch vehicle
Unknown
Launch site
Air Force Western Test Range (AFWTR)
Object type
Payload
Rocket body
Debris
Shape & HBR
BOX + PAN, 17.7 m
Radar Cross Section
RCS unknown

Expand to show TLE details & history
Last TLE update: 6 hours ago

TLE from 6 hours ago
0 STARLINK-38377
1 A0521U 26197V   26251.56254117  .00298237  00000-0  13968-2 0  9990
2 A0521  69.9991 155.7259 0003644 269.9693  90.1092 15.82263753  2104
Epoch: 2026-09-08T13:30Z
TLE epoch observation values (Epoch: 2026-09-08T13:30:03.557Z)
Latitude
0.00006°
Longitude
-34.41607°
Altitude
326.559 km
Speed
7.713 km/s
True Right ascension
10h 22m 54s
True Declination
0° 00' 00"
Sunlit
Object was in daylight at epoch
Visualization orbit readout
Latitude
Unknown
Longitude
Unknown
Altitude
Unknown
Speed
Unknown
Apparent Right ascension
Unknown
Apparent Declination
Unknown
Sunlit
N/A
Visualization observer readout
Local Sidereal Time
11:44:55
Azimuth
Unknown
Elevation
Unknown
Doppler factor
Unknown
Orbital elements
Apogee altitude
324.354 km
Perigee altitude
319.471 km
Semi-major axis
6,700.05 km
Eccentricity
0.00036
Inclination
69.9991°
RAAN
155.7259°
Arg. of periapsis
269.9693°
True anomaly
90.15096°
Mean anomaly
90.1092°
Eccentric anomaly
90.13008°
Mean motion
3.95755 °/min
Orbital period
90.97 mins
BSTAR
0.0013968
Loading maneuver chart data...
Computing Atmospheric mass density...
Loading historical data...
Loading historical data...
Loading historical data...
Loading historical data...
Loading historical data...
Loading historical data...
Loading historical data...

Documentation

Showing up to 5 results
|